Dewpoint
57 58 58 58 58 59 59 60 60 60 61 61 61 62 62 62 61 61 62 62 61 61 61 61 61 61 62 61 62 61 59 45 47 48 44 40 52 62 63 65 66 66 60 52 49 36 34 33 31 31 36 39 39 36 45 40 41 40 33 29 25 28 27 31 26 23 25 24 22 20 20 18 17 22 22 23 22 23 23 26 26 26 26 29 34 36 35 36
57 57 57 57 58 58 58 59 59 60 60 61 61 61 62 62 62 62 61 61 61 61 61 61 61 61 62 62 61 61 57 53 46 45 40 64 64 67 67 64 67 66 58 48 44 38 33 30 30 32 35 35 47 37 39 39 41 37 35 30 24 28 27 29 24 20 18 19 20 20 20 18 18 21 22 20 19 20 20 20 23 24 25 29 33 33 34 34
57 57 57 57 57 57 58 58 58 59 60 60 60 61 61 60 61 61 61 61 61 61 61 60 60 61 61 62 61 60 56 54 49 42 37 64 65 66 65 66 65 65 47 43 45 38 32 29 28 28 35 32 39 35 39 38 37 36 32 29 30 32 30 27 23 19 20 19 19 19 20 19 19 20 22 20 19 21 19 18 21 21 22 26 32 31 32 32
57 57 57 57 57 57 57 58 58 58 59 59 60 60 60 60 60 60 61 61 61 61 61 60 60 60 61 61 61 57 56 53 43 43 45 63 65 65 65 65 65 63 56 44 43 38 32 29 27 26 33 29 30 41 37 38 31 34 31 29 28 28 25 24 22 21 22 21 20 20 21 20 20 20 20 20 18 18 18 19 18 19 20 23 31 31 31 30
57 57 57 57 57 57 57 57 57 58 58 58 59 59 60 60 61 61 61 61 61 61 61 60 60 60 61 61 60 55 50 18 26 47 55 63 63 62 65 66 65 58 52 45 31 30 30 27 26 33 32 25 33 34 35 37 33 35 26 26 26 26 26 25 21 25 21 22 20 23 19 17 23 21 19 19 17 17 18 19 19 19 20 22 30 30 30 30
56 56 56 56 57 57 57 57 57 57 58 58 58 59 60 60 60 60 61 61 61 61 61 60 60 60 61 60 53 55 28 -3 35 51 55 59 63 64 64 61 64 58 51 35 29 29 29 28 28 32 25 24 25 24 25 33 33 28 28 27 27 27 26 27 22 24 20 20 19 23 19 20 20 19 20 19 18 18 20 20 20 19 20 20 28 30 29 30
57 56 56 55 56 56 56 57 57 57 57 58 58 58 59 60 60 60 60 60 61 60 61 60 60 60 61 60 54 53 35 32 50 52 57 60 63 63 62 63 61 53 41 29 28 27 30 28 28 28 28 26 24 24 24 26 32 30 27 23 22 23 22 22 21 23 21 18 18 19 21 19 20 17 20 19 19 19 20 20 20 22 25 22 27 29 29 30
58 57 57 56 55 55 56 56 56 57 57 57 58 58 59 59 60 60 60 60 60 60 60 60 60 60 59 53 50 45 40 34 40 49 59 60 60 56 58 53 46 45 31 27 26 25 28 26 24 30 25 23 23 24 27 25 27 28 26 24 23 23 22 23 21 22 21 20 19 25 20 18 19 18 20 18 19 20 20 20 20 20 24 23 25 28 29 29
58 57 57 56 56 55 55 56 56 56 57 57 57 58 59 59 59 59 60 60 60 60 60 60 60 60 59 52 42 32 28 45 44 47 55 55 53 50 48 37 41 32 31 29 27 29 29 26 28 28 23 25 26 21 22 23 20 24 25 23 20 20 19 19 19 19 20 20 21 20 18 19 20 21 18 19 19 20 20 20 20 20 22 23 23 27 28 28
58 58 57 57 56 55 55 55 56 56 56 57 57 58 58 59 59 60 60 60 60 60 60 60 60 59 53 45 40 23 33 43 44 48 51 48 43 41 34 42 35 35 29 27 28 28 27 28 32 37 34 24 26 20 26 26 22 21 21 21 19 19 19 19 19 19 19 21 20 18 18 18 21 20 16 17 18 20 20 20 20 20 20 21 23 25 27 28
59 57 57 57 56 55 55 55 55 56 56 57 57 58 58 58 59 59 59 60 59 59 60 60 60 53 49 46 38 24 44 46 41 39 40 43 40 30 37 44 38 37 30 32 29 27 27 32 43 38 35 20 25 23 23 23 23 21 20 19 20 20 23 19 19 19 19 18 20 19 18 20 20 23 17 17 19 21 20 20 20 21 20 19 21 23 27 27
59 58 57 57 56 56 55 56 55 56 56 57 57 57 58 58 59 59 59 59 60 59 59 59 58 56 48 45 39 29 44 43 41 40 38 38 44 47 49 41 36 46 41 34 37 48 47 42 39 25 20 27 21 23 20 23 22 21 20 19 19 20 19 20 19 19 19 17 20 20 19 18 20 18 19 19 19 20 19 19 20 20 21 22 21 21 23 25
58 58 57 57 57 56 56 56 56 57 57 57 57 57 57 58 58 58 59 59 59 59 59 59 59 56 48 34 36 44 43 39 43 43 47 47 45 46 41 46 40 41 40 36 40 46 46 40 36 28 32 28 24 23 24 27 22 21 20 19 18 18 18 18 19 19 18 18 20 18 16 15 16 18 19 19 19 19 19 19 19 21 21 21 22 21 21 22
58 58 57 57 57 57 57 57 57 57 57 57 57 57 58 58 58 59 59 58 59 59 59 60 55 54 40 25 40 44 44 45 42 44 44 47 36 41 47 48 46 44 45 41 43 43 43 39 34 26 30 25 22 32 21 22 23 18 19 20 19 18 17 18 18 19 17 21 19 17 16 14 14 14 16 19 19 18 17 18 18 19 20 21 22 22 22 21
58 58 57 58 58 57 57 57 57 57 57 57 57 57 58 58 58 58 58 58 58 59 60 59 54 47 37 34 43 45 60 38 39 44 44 40 44 41 46 46 44 40 38 42 39 39 35 37 31 24 21 25 29 23 21 21 21 20 18 18 23 18 18 18 20 18 16 20 18 17 18 15 15 15 15 14 16 17 17 17 17 19 18 19 20 21 21 22
57 57 57 57 58 57 57 56 57 57 57 57 57 57 58 57 57 57 58 58 58 59 57 49 51 49 31 25 39 53 44 35 33 41 43 45 45 39 44 43 39 38 32 30 37 32 31 29 21 24 28 26 22 21 21 22 21 22 17 19 18 23 19 18 20 20 17 18 19 16 15 15 15 15 16 16 15 16 16 16 17 18 18 18 18 19 20 20
57 57 57 58 58 57 56 56 56 56 57 57 57 57 57 57 58 58 59 59 56 58 57 52 47 45 24 30 37 33 33 41 46 42 39 42 47 44 40 39 35 35 34 33 35 36 34 27 32 26 28 25 21 26 20 21 19 20 23 18 22 18 18 18 21 20 23 17 16 16 15 14 14 13 13 12 18 15 16 16 17 17 17 18 18 18 19 19
58 58 58 58 58 56 56 56 56 57 57 57 57 57 57 58 59 59 57 57 57 54 52 55 46 33 29 37 27 24 45 42 44 44 42 38 44 37 36 32 37 33 33 30 33 24 33 22 25 25 28 25 21 23 21 14 14 15 22 21 20 19 18 18 18 18 17 17 16 16 16 15 15 16 15 15 15 17 16 16 16 17 17 17 18 18 18 18
57 57 58 59 58 56 56 56 57 57 57 58 58 57 57 59 54 54 49 51 45 35 29 34 34 23 20 26 33 40 48 47 43 41 37 36 42 39 36 33 35 28 30 25 26 24 32 29 33 26 22 22 20 19 19 16 16 17 19 16 17 18 15 12 14 18 17 17 16 16 15 15 16 16 16 16 16 16 15 16 17 16 16 16 16 16 17 17
57 57 58 58 58 57 58 57 57 58 58 56 53 52 47 41 38 37 39 45 42 29 26 29 32 30 34 30 38 43 48 43 36 40 40 43 37 34 32 28 40 30 25 24 32 25 32 23 25 24 20 19 21 20 19 18 17 16 21 21 16 16 15 17 17 17 18 16 16 15 15 15 15 16 16 16 16 17 16 15 14 16 16 16 16 16 16 15
57 57 58 58 58 58 58 58 58 58 58 55 52 44 26 35 27 25 29 28 37 39 34 29 29 29 24 38 43 38 33 31 37 40 38 42 32 30 28 25 32 29 27 29 28 31 27 23 24 23 20 18 22 22 20 19 19 18 19 20 17 21 17 17 18 18 18 17 16 16 16 16 15 16 16 16 15 14 14 14 14 14 14 16 16 16 16 16
58 58 58 58 58 58 58 58 58 58 58 52 48 41 44 43 44 46 33 27 34 33 33 34 32 28 28 36 40 39 33 26 33 39 42 36 29 23 23 22 27 24 29 28 26 26 27 23 23 23 21 22 20 21 21 20 21 21 19 19 20 20 21 18 17 16 16 18 15 15 15 15 16 16 16 16 15 15 15 15 15 14 14 16 16 16 16 17
58 58 58 58 58 58 58 57 57 58 53 47 46 45 45 45 45 46 45 39 38 38 32 29 24 29 29 31 37 36 25 22 19 37 37 38 30 24 25 21 24 23 27 24 22 22 23 26 26 25 24 23 22 21 19 19 20 19 18 18 17 19 17 13 13 16 14 15 14 16 14 14 14 14 15 15 16 16 18 18 19 18 16 15 15 14 16 16
58 58 59 58 58 58 58 57 57 51 48 45 46 44 46 45 45 46 45 37 30 34 30 28 23 21 25 25 31 32 26 23 21 25 39 32 26 31 25 21 21 22 20 22 20 17 15 23 25 26 27 25 22 21 21 17 15 20 21 19 18 19 17 16 12 18 17 16 18 14 17 17 18 18 19 19 20 19 19 19 19 20 25 23 25 24 23 18
58 58 58 58 58 58 58 57 50 48 48 47 45 45 45 44 44 46 41 37 33 33 40 38 33 34 23 37 35 29 26 23 18 35 38 31 26 23 21 22 19 19 19 20 20 18 15 15 29 25 26 25 25 21 22 22 16 16 20 20 17 17 16 16 17 21 21 22 24 22 16 13 17 18 17 16 17 17 18 18 18 18 19 20 19 21 22 27
58 58 58 58 58 58 57 51 47 49 48 46 45 45 45 45 45 45 37 25 20 31 31 27 36 29 38 30 34 30 19 18 35 36 36 36 37 26 20 19 19 17 17 19 17 20 17 21 25 26 26 27 26 23 26 22 18 17 17 24 20 18 19 21 24 25 22 19 21 22 15 14 15 15 17 16 17 16 17 19 18 18 18 19 20 22 21 24
58 58 58 58 58 56 50 47 49 49 44 46 46 46 45 46 46 41 31 22 21 30 27 35 31 32 40 36 27 18 17 21 35 32 31 38 29 35 19 17 19 19 18 21 20 16 16 18 21 25 23 25 24 21 26 23 20 17 26 26 26 24 26 26 26 26 23 25 27 25 22 18 17 15 15 15 13 12 11 12 15 17 18 18 18 19 20 27
58 58 58 58 58 56 51 50 50 47 45 47 48 47 47 45 46 44 22 15 15 32 31 30 35 40 35 32 37 17 21 24 24 29 30 34 31 29 24 19 17 18 18 21 16 32 15 22 24 24 25 22 21 20 23 26 20 21 26 31 28 26 26 28 25 24 24 20 19 20 23 15 15 14 13 12 10 10 10 10 11 13 16 17 18 19 19 24
58 58 58 58 58 57 53 51 49 47 49 49 48 48 47 45 39 31 21 14 26 28 31 29 38 34 32 32 27 24 24 25 20 28 35 33 35 27 25 24 22 19 20 21 16 21 26 26 26 26 25 22 23 24 27 27 22 26 29 31 29 28 27 24 20 18 21 16 17 18 18 13 11 12 13 14 11 10 10 11 11 12 15 16 17 18 19 21
58 58 58 58 57 55 53 52 50 51 50 48 47 46 46 43 28 21 16 11 26 22 26 30 28 28 29 27 27 26 22 23 25 27 29 25 32 32 26 26 23 21 23 23 25 24 23 26 31 29 25 22 24 25 30 29 27 32 29 25 28 26 25 24 23 20 19 16 18 20 20 15 11 15 11 14 17 11 11 11 11 12 15 14 15 16 19 22
58 58 57 57 55 54 53 50 50 50 49 48 48 48 45 34 23 17 16 22 26 29 26 27 26 29 25 25 22 24 24 24 23 26 24 26 27 25 25 20 29 24 22 21 22 22 22 27 24 28 29 27 26 24 29 30 30 29 24 22 21 22 24 22 20 20 12 14 18 18 20 16 12 13 15 12 14 12 11 11 11 12 12 14 15 15 16 19
58 58 57 57 57 55 52 50 50 51 50 49 48 44 38 25 25 17 21 22 23 28 25 26 30 28 24 27 27 25 23 23 24 25 21 24 25 22 22 18 22 14 19 17 16 20 19 20 25 27 33 25 27 24 25 27 27 27 22 20 16 19 15 9 14 11 12 13 15 17 20 19 13 9 12 13 14 14 14 12 12 12 11 13 13 15 17 26
57 57 57 57 56 55 54 52 52 51 51 50 49 48 39 29 26 29 23 23 24 29 27 31 28 27 30 26 26 28 29 22 24 23 25 26 24 25 27 22 26 20 13 22 18 18 21 26 22 25 25 29 27 20 23 18 21 25 22 21 17 12 9 7 9 12 15 19 20 16 21 12 10 11 15 13 13 13 14 14 14 12 12 12 13 15 20 30
58 57 56 56 57 57 54 52 51 51 50 49 44 41 37 30 31 37 29 23 27 29 32 32 29 29 29 24 30 29 24 29 23 21 23 25 23 22 25 25 25 23 24 25 17 19 14 17 21 24 21 28 25 20 20 18 20 23 24 21 21 17 9 5 10 9 11 14 17 20 16 18 9 13 19 14 14 14 13 14 16 16 15 14 14 23 27 28
57 57 57 56 56 57 53 52 52 51 50 47 41 36 30 29 32 32 30 29 31 30 30 31 31 28 28 29 31 31 25 24 26 26 24 25 23 24 24 23 24 23 25 19 24 21 19 17 17 24 25 28 26 25 22 23 22 23 24 22 16 19 17 10 14 15 9 13 15 15 17 17 13 14 16 16 16 16 18 18 17 15 15 17 24 27 28 27
56 56 57 55 54 55 53 52 52 51 49 44 36 32 32 34 32 33 33 36 31 31 34 34 32 28 28 27 31 29 34 26 29 27 27 26 26 25 26 26 24 22 23 18 25 20 21 18 26 29 27 25 25 26 22 23 16 22 22 19 20 21 18 16 19 19 12 10 13 14 13 15 15 9 9 11 11 11 12 15 16 14 14 16 21 27 27 27
55 55 53 54 54 55 52 52 51 50 48 42 35 31 35 34 39 37 40 36 33 34 37 34 33 28 28 27 27 31 32 32 32 27 25 29 24 26 27 27 29 24 22 20 21 25 20 17 31 28 26 27 24 26 27 26 25 21 18 20 26 29 25 17 13 13 11 12 12 14 11 8 9 12 15 12 12 11 11 11 10 13 15 13 18 29 28 27
54 54 54 54 54 54 52 52 51 49 45 40 35 37 38 36 43 39 38 36 35 38 38 37 38 38 36 36 35 32 35 30 31 29 28 26 24 30 28 26 28 24 23 23 19 27 25 17 17 27 27 27 27 26 25 27 27 22 23 28 20 16 15 19 18 13 13 13 13 9 9 8 9 9 9 10 11 10 10 11 10 10 12 13 19 27 28 27
54 52 48 51 54 53 52 51 49 46 42 36 34 35 39 38 39 39 40 39 40 38 37 39 38 39 39 36 37 36 34 31 32 32 28 28 26 28 25 27 30 27 25 23 22 23 27 20 21 29 28 28 25 25 22 23 26 27 28 22 26 19 20 16 20 18 17 14 14 15 12 12 17 11 11 12 10 12 11 11 9 8 10 13 18 24 28 27
50 48 45 52 54 52 52 50 47 45 40 34 35 35 38 38 39 39 39 38 38 39 39 39 39 37 37 37 37 35 34 34 33 34 31 30 31 29 26 28 27 28 28 26 25 30 24 21 17 23 29 26 21 22 23 23 23 22 22 21 21 18 21 21 21 20 15 14 13 12 12 14 15 13 12 12 11 13 12 12 18 19 17 16 21 26 29 29
52 48 47 52 53 52 51 48 43 39 37 36 38 37 36 36 40 43 42 40 42 44 41 38 40 38 37 36 37 37 34 34 32 33 32 34 32 29 31 28 29 24 23 29 29 29 26 21 21 20 18 20 22 24 23 24 23 22 22 21 20 20 19 17 17 21 20 16 14 12 12 17 16 11 12 11 12 14 18 19 19 20 21 21 22 25 28 30
48 42 45 52 52 52 48 41 39 40 36 36 37 37 36 39 37 37 38 39 40 40 42 40 40 38 38 38 38 37 36 35 36 35 34 33 35 32 32 33 31 29 21 20 20 32 28 27 25 26 24 22 23 23 26 23 25 25 25 22 25 21 19 18 14 18 18 17 18 19 15 15 14 17 15 15 14 13 17 18 16 19 20 19 25 26 26 26
46 43 50 51 52 51 46 40 40 38 36 37 39 38 40 38 39 39 38 38 37 38 39 39 38 37 38 37 37 38 37 35 36 35 35 35 35 35 35 36 37 34 29 20 32 26 32 26 26 26 29 30 29 28 26 26 26 24 24 26 22 20 21 18 18 15 17 18 15 16 15 16 17 16 16 16 17 18 17 16 18 18 20 20 23 24 23 23
44 44 45 51 51 50 43 35 35 36 36 38 37 36 38 38 38 36 37 38 38 38 38 38 39 39 37 39 37 36 38 33 35 36 35 37 37 38 37 36 37 36 32 25 30 31 30 28 27 24 24 24 26 27 24 23 24 23 20 23 25 24 24 24 24 23 18 20 18 15 13 16 24 20 19 18 17 17 17 17 16 19 20 24 24 23 24 25
45 46 46 47 50 48 41 40 38 36 37 37 36 35 34 35 37 38 37 36 38 38 37 37 37 38 38 39 38 38 38 36 33 35 36 34 36 38 37 38 37 38 36 37 36 36 31 31 29 25 22 20 19 19 20 21 22 22 24 25 25 25 24 22 20 22 18 19 19 18 16 17 16 19 19 18 18 18 18 18 18 19 19 18 20 22 23 24
38 33 42 43 46 45 45 44 41 38 36 35 35 36 36 34 35 38 38 37 37 38 38 37 38 39 38 37 37 36 36 38 36 33 34 33 34 34 37 36 35 36 37 36 38 37 30 32 29 28 26 25 25 26 28 29 27 24 24 23 22 24 25 25 23 22 20 21 21 20 20 19 20 20 20 19 18 18 17 17 17 17 17 19 19 22 25 25
42 37 38 35 43 42 41 43 42 41 38 37 33 35 34 34 34 34 38 34 37 37 35 37 36 36 36 37 36 36 36 35 37 37 35 34 34 35 36 37 36 36 37 36 35 33 30 29 29 29 28 28 29 28 29 29 27 27 27 26 26 25 26 25 23 20 21 22 18 21 22 23 22 21 20 20 19 19 19 18 18 18 19 20 21 21 27 23
34 34 38 39 37 33 37 38 42 41 41 39 36 36 34 33 33 32 35 37 36 36 34 37 36 37 36 36 35 33 35 36 36 34 36 36 35 36 36 36 34 35 35 33 35 31 28 27 29 30 28 29 30 29 30 29 28 28 28 28 27 26 26 26 25 25 24 22 19 21 23 23 22 21 21 21 20 19 19 19 19 19 19 20 20 21 21 21
38 37 38 40 34 37 36 36 38 39 38 40 37 38 36 35 34 34 34 32 35 34 36 33 36 37 36 37 36 34 35 32 32 35 34 34 35 35 34 35 35 36 35 33 32 32 31 28 29 30 29 29 30 31 31 30 29 29 29 29 29 28 27 26 25 25 24 23 23 23 23 23 23 23 22 22 22 21 20 20 20 20 19 20 20 20 20 20
33 33 32 37 37 36 35 34 35 37 35 38 34 36 38 37 36 36 37 36 33 35 39 35 35 35 37 36 37 35 35 35 34 32 33 35 34 35 34 34 33 32 35 34 34 32 33 30 33 31 29 29 30 31 31 31 30 29 30 31 30 30 30 29 28 27 27 26 25 25 24 23 23 23 23 23 23 22 21 20 20 20 20 21 21 21 21 21
39 40 40 34 31 32 31 30 32 33 33 35 35 35 36 36 35 36 36 38 37 35 36 36 37 35 34 35 36 37 38 36 35 35 35 35 33 37 35 34 37 34 30 32 32 32 33 31 33 31 29 28 30 30 30 31 31 30 29 31 31 31 30 29 29 28 27 27 26 26 25 24 24 25 25 25 24 23 22 21 21 21 21 21 22 22 22 23
36 40 38 36 30 32 30 29 29 28 28 31 33 34 34 35 36 35 32 36 37 38 38 35 35 34 33 33 33 34 32 32 34 36 36 37 38 39 40 40 40 38 33 33 33 32 31 29 30 30 28 27 30 30 30 30 30 27 28 30 31 31 30 30 29 29 28 28 26 25 25 25 25 26 25 25 24 24 23 23 23 23 23 23 23 23 23 24